Location: Newark
(44.3248°N, 23.7839°E)
Time: 04:46:33
(UTC+00:00)

FO-29 - Pass Details

Date: 28 April 2024
Orbit: 801 x 1320 km, 98.6° (Epoch: 28 May)

Event Time Altitude Azimuth Distance (km) Brightness Sun altitude
Rises 23:18:36 0° 20° (NNE) 4,265 14.0 -29.7°
Reaches altitude 10° 23:21:34 10° 28° (NNE) 3,326 13.2 -29.6°
Maximum altitude 23:28:42 37° 94° (E) 1,931 11.0 -29.2°
Enters shadow 23:31:30 29° 133° (SE) 2,204 11.1 -29.0°
